Torna al catalogo

COSMOS 724

AttivoMilitareLEO
NORAD 7727·PAYLOAD·🇷🇺 Russia

Lanciato Apr 7, 1975 da Baikonur Cosmodrome

Loading…

Prossimi Passaggi (prossime 24 ore)

TLE

AggiornatoSource: Space-Track

Epoca: Sep 14, 2026, 13:16 UTC

1 07727U 75025A   26257.55325228 -.00000062  00000-0  17855-4 0  9995
2 07727  65.5896 186.1367 0045653  73.5058 287.1024 13.99133286628192

Traccia COSMOS 724 in tempo reale con AllMySat

Download on the App Store